| time (UTC) | temp C | wind direction | speed KPH | gust KPH | rain 1hr cm | rain 24hr cm | rain mn cm | humidity % | barometer mb |
| 20260507040954 | 27 | 319 | 0.0 | 4.8 | 0.00 | 0.00 | 0.00 | 75 | 1011.1 |
| 20260507035954 | 27 | 317 | 3.2 | 4.8 | 0.00 | 0.00 | 0.00 | 74 | 1010.9 |
| 20260507034958 | 27 | 344 | 1.6 | 3.2 | 0.00 | 0.00 | 0.00 | 77 | 1010.8 |
| 20260507033953 | 27 | 321 | 0.0 | 3.2 | 0.00 | 0.00 | 0.00 | 77 | 1011.0 |
| 20260507032958 | 27 | 31 | 0.0 | 3.2 | 0.00 | 0.00 | 0.00 | 78 | 1010.9 |
| 20260507031954 | 27 | 43 | 3.2 | 3.2 | 0.00 | 0.00 | 0.00 | 80 | 1011.0 |
| 20260507024953 | 27 | 305 | 4.8 | 8.0 | 0.00 | 0.00 | 0.00 | 81 | 1010.7 |
| 20260507023959 | 27 | 238 | 0.0 | 3.2 | 0.00 | 0.00 | 0.00 | 80 | 1010.6 |
| 20260507022954 | 27 | 37 | 0.0 | 3.2 | 0.00 | 0.00 | 0.00 | 80 | 1010.7 |
| 20260507021954 | 27 | 221 | 0.0 | 3.2 | 0.00 | 0.00 | 0.00 | 80 | 1010.3 |
| 20260507020954 | 27 | 135 | 0.0 | 3.2 | 0.00 | 0.00 | 0.00 | 80 | 1010.2 |
| 20260507014954 | 28 | 262 | 1.6 | 3.2 | 0.00 | 0.00 | 0.00 | 79 | 1009.9 |
| 20260507011954 | 28 | 150 | 0.0 | 8.0 | 0.00 | 0.00 | 0.00 | 77 | 1009.8 |
| 20260507005957 | 29 | 108 | 0.0 | 9.7 | 0.00 | 0.00 | 0.00 | 76 | 1009.3 |
| 20260507003954 | 30 | 262 | 1.6 | 8.0 | 0.00 | 0.00 | 0.00 | 71 | 1009.3 |
| 20260507002954 | 30 | 246 | 4.8 | 9.7 | 0.00 | 0.00 | 0.00 | 68 | 1009.0 |
| 20260507001954 | 31 | 142 | 8.0 | 9.7 | 0.00 | 0.00 | 0.00 | 66 | 1008.8 |
| 20260507000954 | 31 | 116 | 3.2 | 6.4 | 0.00 | 0.00 | 0.00 | 65 | 1008.8 |
| 20260506235953 | 31 | 193 | 3.2 | 8.0 | 0.00 | 0.00 | 0.00 | 64 | 1008.6 |
| 20260506234954 | 31 | 247 | 3.2 | 9.7 | 0.00 | 0.00 | 0.00 | 62 | 1008.6 |
| 20260506232954 | 32 | 224 | 3.2 | 4.8 | 0.00 | 0.00 | 0.00 | 55 | 1008.4 |
| 20260506231958 | 32 | 297 | 3.2 | 9.7 | 0.00 | 0.00 | 0.00 | 58 | 1008.5 |
| 20260506230954 | 32 | 209 | 3.2 | 9.7 | 0.00 | 0.00 | 0.00 | 63 | 1008.4 |
| 20260506225954 | 31 | 237 | 3.2 | 9.7 | 0.00 | 0.00 | 0.00 | 65 | 1008.7 |
| 20260506224954 | 32 | 325 | 0.0 | 9.7 | 0.00 | 0.00 | 0.00 | 61 | 1008.5 |
| 20260506223953 | 32 | 263 | 4.8 | 9.7 | 0.00 | 0.00 | 0.00 | 62 | 1008.5 |
| 20260506222953 | 32 | 296 | 3.2 | 12.9 | 0.00 | 0.00 | 0.00 | 61 | 1008.3 |
| 20260506221953 | 32 | 236 | 8.0 | 12.9 | 0.00 | 0.00 | 0.00 | 61 | 1008.2 |
| 20260506220957 | 32 | 208 | 1.6 | 14.5 | 0.00 | 0.00 | 0.00 | 58 | 1008.4 |
| 20260506213954 | 32 | 262 | 3.2 | 14.5 | 0.00 | 0.00 | 0.00 | 60 | 1008.6 |
| 20260506210954 | 33 | 265 | 3.2 | 11.3 | 0.00 | 0.00 | 0.00 | 58 | 1008.8 |
| 20260506205958 | 32 | 151 | 0.0 | 12.9 | 0.00 | 0.00 | 0.00 | 60 | 1009.0 |
| 20260506204954 | 32 | 241 | 3.2 | 12.9 | 0.00 | 0.00 | 0.00 | 61 | 1009.0 |
| 20260506203954 | 32 | 277 | 3.2 | 14.5 | 0.00 | 0.00 | 0.00 | 61 | 1009.2 |
| 20260506195957 | 32 | 164 | 6.4 | 17.7 | 0.00 | 0.00 | 0.00 | 65 | 1009.7 |
| 20260506195002 | 32 | 137 | 3.2 | 12.9 | 0.00 | 0.00 | 0.00 | 62 | 1009.7 |
| 20260506193953 | 32 | 240 | 6.4 | 16.1 | 0.00 | 0.00 | 0.00 | 62 | 1009.8 |
| 20260506192954 | 32 | 253 | 9.7 | 11.3 | 0.00 | 0.00 | 0.00 | 64 | 1010.0 |
| 20260506191958 | 32 | 252 | 4.8 | 17.7 | 0.00 | 0.00 | 0.00 | 60 | 1010.2 |
| 20260506190954 | 32 | 259 | 6.4 | 14.5 | 0.00 | 0.00 | 0.00 | 60 | 1010.3 |
| 20260506185954 | 32 | 232 | 8.0 | 9.7 | 0.00 | 0.00 | 0.00 | 63 | 1010.3 |
| 20260506184958 | 32 | 122 | 0.0 | 8.0 | 0.00 | 0.00 | 0.00 | 63 | 1010.5 |
| 20260506181954 | 32 | 145 | 1.6 | 17.7 | 0.00 | 0.00 | 0.00 | 66 | 1010.6 |
| 20260506180954 | 31 | 358 | 3.2 | 17.7 | 0.00 | 0.00 | 0.00 | 69 | 1010.7 |
| 20260506175954 | 31 | 268 | 3.2 | 17.7 | 0.00 | 0.00 | 0.00 | 67 | 1011.0 |
| 20260506174953 | 31 | 258 | 4.8 | 12.9 | 0.00 | 0.00 | 0.00 | 64 | 1010.8 |
| 20260506173957 | 31 | 120 | 0.0 | 14.5 | 0.00 | 0.00 | 0.00 | 66 | 1010.9 |
| 20260506172954 | 30 | 349 | 0.0 | 14.5 | 0.00 | 0.00 | 0.00 | 68 | 1011.1 |
| 20260506171954 | 31 | 158 | 8.0 | 9.7 | 0.00 | 0.00 | 0.00 | 64 | 1011.1 |
| 20260506170953 | 31 | 181 | 1.6 | 11.3 | 0.00 | 0.00 | 0.00 | 64 | 1011.2 |
| 20260506165953 | 30 | 131 | 0.0 | 11.3 | 0.00 | 0.00 | 0.00 | 66 | 1011.3 |
| 20260506163954 | 30 | 166 | 4.8 | 9.7 | 0.00 | 0.00 | 0.00 | 66 | 1011.3 |
| 20260506161953 | 30 | 179 | 9.7 | 11.3 | 0.00 | 0.00 | 0.00 | 69 | 1011.6 |
| 20260506160958 | 29 | 208 | 0.0 | 11.3 | 0.00 | 0.00 | 0.00 | 70 | 1011.6 |
| 20260506155958 | 29 | 175 | 8.0 | 12.9 | 0.00 | 0.00 | 0.00 | 69 | 1011.5 |
| 20260506154953 | 29 | 84 | 3.2 | 9.7 | 0.00 | 0.00 | 0.00 | 70 | 1011.4 |
| 20260506153953 | 29 | 240 | 8.0 | 12.9 | 0.00 | 0.00 | 0.00 | 72 | 1011.5 |
| 20260506152953 | 28 | 243 | 1.6 | 11.3 | 0.00 | 0.00 | 0.00 | 71 | 1011.6 |
| 20260506150953 | 28 | 73 | 3.2 | 9.7 | 0.00 | 0.00 | 0.00 | 76 | 1011.1 |
| 20260506145954 | 28 | 170 | 1.6 | 8.0 | 0.00 | 0.00 | 0.00 | 77 | 1011.2 |
| 20260506143954 | 28 | 130 | 0.0 | 8.0 | 0.00 | 0.00 | 0.00 | 78 | 1010.9 |
| 20260506141953 | 28 | 198 | 1.6 | 4.8 | 0.00 | 0.00 | 0.00 | 79 | 1010.8 |
| 20260506134958 | 27 | 77 | 3.2 | 4.8 | 0.00 | 0.00 | 0.00 | 79 | 1010.3 |
| 20260506132953 | 25 | 297 | 0.0 | 1.6 | 0.00 | 0.00 | 0.00 | 86 | 1010.2 |
| 20260506130954 | 24 | 315 | 0.0 | 3.2 | 0.00 | 0.00 | 0.00 | 89 | 1010.0 |
| 20260506125954 | 23 | 245 | 0.0 | 1.6 | 0.00 | 0.00 | 0.00 | 93 | 1010.0 |
| 20260506121958 | 22 | 242 | 0.0 | 1.6 | 0.00 | 0.00 | 0.00 | 94 | 1009.5 |
| 20260506120954 | 22 | 247 | 0.0 | 3.2 | 0.00 | 0.00 | 0.00 | 94 | 1009.8 |
| 20260506115953 | 22 | 290 | 0.0 | 3.2 | 0.00 | 0.00 | 0.00 | 93 | 1009.7 |
| 20260506114954 | 22 | 307 | 0.0 | 3.2 | 0.00 | 0.00 | 0.00 | 93 | 1009.7 |
| 20260506113954 | 22 | 333 | 0.0 | 1.6 | 0.00 | 0.00 | 0.00 | 92 | 1009.5 |
| 20260506112953 | 23 | 224 | 0.0 | 3.2 | 0.00 | 0.00 | 0.00 | 92 | 1009.7 |
| 20260506111954 | 23 | 235 | 0.0 | 3.2 | 0.00 | 0.00 | 0.00 | 92 | 1009.5 |
| 20260506105954 | 23 | 108 | 1.6 | 3.2 | 0.00 | 0.00 | 0.00 | 91 | 1009.4 |
| 20260506104953 | 23 | 269 | 0.0 | 1.6 | 0.00 | 0.00 | 0.00 | 91 | 1009.2 |
| 20260506102954 | 23 | 311 | 0.0 | 3.2 | 0.00 | 0.00 | 0.00 | 91 | 1009.5 |
| 20260506100954 | 24 | 249 | 0.0 | 3.2 | 0.00 | 0.00 | 0.00 | 90 | 1009.7 |
| 20260506094954 | 24 | 301 | 1.6 | 1.6 | 0.00 | 0.00 | 0.00 | 90 | 1009.7 |
| 20260506093953 | 24 | 353 | 0.0 | 3.2 | 0.00 | 0.00 | 0.00 | 89 | 1009.5 |
| 20260506092954 | 24 | 238 | 0.0 | 1.6 | 0.00 | 0.00 | 0.00 | 88 | 1009.5 |
| 20260506091953 | 25 | 337 | 0.0 | 3.2 | 0.00 | 0.00 | 0.00 | 88 | 1009.8 |
| 20260506085954 | 25 | 312 | 0.0 | 3.2 | 0.00 | 0.00 | 0.00 | 88 | 1010.0 |
| 20260506084954 | 25 | 311 | 1.6 | 4.8 | 0.00 | 0.00 | 0.00 | 88 | 1009.9 |
| 20260506083958 | 25 | 332 | 3.2 | 4.8 | 0.00 | 0.00 | 0.00 | 87 | 1010.1 |
| 20260506082954 | 25 | 340 | 3.2 | 4.8 | 0.00 | 0.00 | 0.00 | 87 | 1010.2 |
| 20260506081953 | 25 | 322 | 0.0 | 4.8 | 0.00 | 0.00 | 0.00 | 87 | 1010.2 |
| 20260506072953 | 25 | 36 | 0.0 | 3.2 | 0.00 | 0.00 | 0.00 | 88 | 1010.1 |
| 20260506071953 | 25 | 60 | 0.0 | 1.6 | 0.00 | 0.00 | 0.00 | 88 | 1010.3 |
| 20260506070954 | 25 | 335 | 0.0 | 3.2 | 0.00 | 0.00 | 0.00 | 88 | 1010.2 |
| 20260506060954 | 25 | 343 | 0.0 | 3.2 | 0.00 | 0.00 | 0.00 | 87 | 1010.3 |
| 20260506044953 | 26 | 24 | 0.0 | 3.2 | 0.00 | 0.00 | 0.00 | 83 | 1010.1 |
| 20260506043953 | 26 | 336 | 3.2 | 3.2 | 0.00 | 0.00 | 0.00 | 84 | 1010.0 |
| 20260506042954 | 27 | 44 | 0.0 | 1.6 | 0.00 | 0.00 | 0.00 | 84 | 1009.9 |
| 20260506041953 | 27 | 214 | 0.0 | 3.2 | 0.00 | 0.00 | 0.00 | 83 | 1009.8 |